Weather History for Tekamah, NE

Change the Weather History Date:

Saturday, October 4, 2014

  Actual Average Record
Temperature  
Mean Temperature 45 °F -  
Max Temperature 57 °F 71 °F 93 °F (2005)
Min Temperature 35 °F 43 °F 26 °F (1950)
Degree Days  
Heating Degree Days 20    
Moisture  
Dew Point 28 °F    
Average Humidity 53    
Maximum Humidity 74    
Minimum Humidity 26    
Precipitation  
Precipitation 0.00 in - - ()
Sea Level Pressure  
Sea Level Pressure 29.97 in    
Wind  
Wind Speed 10 mph (WNW)    
Max Wind Speed 20 mph    
Max Gust Speed 26 mph    
Visibility 10 miles    
Events      
Averages and records for this station are not official NWS values.
T = Trace of Precipitation, MM = Missing Value Source: NWS Daily Summary

Daily Weather History Graph

Daily Weather History Graph

Search for Another Location

Airport:

Trip Planner

Search our weather history database for the weather conditions in past years. The results will help you decide how hot, cold, wet, or windy it might be!

Date:

Astronomy

Oct. 04, 2014 Rise Set
Actual Time 7:24 AM CDT 7:01 PM CDT
Civil Twilight 6:57 AM CDT 7:28 PM CDT
Nautical Twilight 6:24 AM CDT 8:01 PM CDT
Astronomical Twilight 5:52 AM CDT 8:33 PM CDT
Moon 4:42 PM CDT (10/4) 2:50 AM CDT (10/4)
Length of Visible Light 12h 31m
Length of Day
11h 36m
Waxing Gibbous, 81% of the Moon is Illuminated
Oct 4
Waxing Gibbous
Oct 8
Full
Oct 15
Last Quarter
Oct 23
New
Oct 30
First Quarter

Hourly Weather History & Observations

Time (CDT) Temp. Windchill Dew Point Humidity Pressure Visibility Wind Dir Wind Speed Gust Speed Precip Events Conditions
12:54 AM 36.0 °F 29.0 °F 25.0 °F 64% 30.08 in 10.0 mi West 9.2 mph - N/A   Clear
1:54 AM 37.0 °F 30.4 °F 24.1 °F 59% 30.07 in 10.0 mi West 9.2 mph - N/A   Clear
2:54 AM 35.1 °F 28.6 °F 25.0 °F 67% 30.06 in 10.0 mi West 8.1 mph - N/A   Clear
3:54 AM 36.0 °F 29.6 °F 25.0 °F 64% 30.05 in 10.0 mi West 8.1 mph - N/A   Clear
4:54 AM 37.0 °F 31.0 °F 26.1 °F 65% 30.04 in 10.0 mi WNW 8.1 mph - N/A   Clear
5:54 AM 36.0 °F 28.5 °F 26.1 °F 67% 30.04 in 10.0 mi West 10.4 mph - N/A   Clear
6:54 AM 36.0 °F 29.0 °F 25.0 °F 64% 30.05 in 10.0 mi NW 9.2 mph - N/A   Clear
7:54 AM 36.0 °F 29.0 °F 26.1 °F 67% 30.05 in 10.0 mi WNW 9.2 mph - N/A   Clear
8:54 AM 39.9 °F 32.5 °F 26.1 °F 58% 30.06 in 10.0 mi WNW 12.7 mph - N/A   Clear
9:54 AM 44.1 °F 36.2 °F 25.0 °F 47% 30.06 in 10.0 mi NW 18.4 mph 26.5 mph N/A   Clear
10:54 AM 46.0 °F 38.5 °F 26.1 °F 46% 30.06 in 10.0 mi NNW 19.6 mph 25.3 mph N/A   Clear
11:54 AM 48.9 °F - 26.1 °F 41% 30.04 in 10.0 mi WNW 13.8 mph 24.2 mph N/A   Clear
12:54 PM 50.0 °F - 26.1 °F 39% 30.02 in 10.0 mi WNW 13.8 mph 18.4 mph N/A   Clear
1:54 PM 53.1 °F - 26.1 °F 35% 29.98 in 10.0 mi West 12.7 mph 21.9 mph N/A   Clear
2:54 PM 55.0 °F - 21.0 °F 27% 29.95 in 10.0 mi NW 12.7 mph 20.7 mph N/A   Clear
3:54 PM 55.9 °F - 21.0 °F 26% 29.92 in 10.0 mi WNW 12.7 mph - N/A   Clear
4:54 PM 55.9 °F - 23.0 °F 28% 29.90 in 10.0 mi WNW 10.4 mph - N/A   Partly Cloudy
5:54 PM 55.0 °F - 25.0 °F 31% 29.88 in 10.0 mi WNW 10.4 mph - N/A   Clear
6:54 PM 52.0 °F - 27.0 °F 38% 29.87 in 10.0 mi WNW 4.6 mph - N/A   Mostly Cloudy
7:54 PM 48.9 °F - 36.0 °F 61% 29.85 in 10.0 mi SW 3.5 mph - N/A   Partly Cloudy
8:54 PM 48.9 °F - 37.0 °F 64% 29.85 in 10.0 mi Calm Calm - N/A   Overcast
9:54 PM 48.0 °F - 37.9 °F 68% 29.83 in 10.0 mi Calm Calm - N/A   Overcast
10:54 PM 48.0 °F - 39.9 °F 74% 29.81 in 10.0 mi Calm Calm - N/A   Overcast
11:54 PM 45.0 °F 41.2 °F 37.0 °F 74% 29.80 in 10.0 mi SSW 6.9 mph - N/A   Scattered Clouds